This is the latest recevied weather packets stored in our database for station/object AA0PB. If no packets are shown the sender has not sent any weather packets the latest 10 day(s).
| Time | Temp. | Humidity | Pressure | Rain* | Wind** | Luminosity | Snow |
|---|---|---|---|---|---|---|---|
| 1777773264 | 20.56° C | 72% | 1012 hPa | 0 mm | - | 77 W/m² | - |
| 1777772961 | 20.56° C | 72% | 1012 hPa | 0 mm | - | 82 W/m² | - |
| 1777772658 | 20.56° C | 73% | 1012 hPa | 0 mm | - | 88 W/m² | - |
| 1777772356 | 20.56° C | 72% | 1012.1 hPa | 0 mm | - | 92 W/m² | - |
| 1777772053 | 20.56° C | 72% | 1011.9 hPa | 0 mm | - | 95 W/m² | - |
| 1777771750 | 20.56° C | 71% | 1011.9 hPa | 0 mm | - | 100 W/m² | - |
| 1777771448 | 20.56° C | 70% | 1011.8 hPa | 0 mm | - | 103 W/m² | - |
| 1777771144 | 20.56° C | 70% | 1011.8 hPa | 0 mm | - | 106 W/m² | - |
| 1777770841 | 21.11° C | 69% | 1011.7 hPa | 0 mm | - | 110 W/m² | - |
| 1777770538 | 21.11° C | 68% | 1011.7 hPa | 0 mm | - | 113 W/m² | - |
| 1777770234 | 21.11° C | 67% | 1011.6 hPa | 0 mm | - | 117 W/m² | - |
| 1777769931 | 21.11° C | 68% | 1011.8 hPa | 0 mm | - | 121 W/m² | - |
| 1777769629 | 21.11° C | 67% | 1011.8 hPa | 0 mm | - | 125 W/m² | - |
| 1777769325 | 21.11° C | 66% | 1011.8 hPa | 0 mm | - | 132 W/m² | - |
| 1777769022 | 21.11° C | 67% | 1011.9 hPa | 0 mm | - | 133 W/m² | - |
| 1777768720 | 21.11° C | 66% | 1011.9 hPa | 0 mm | - | 135 W/m² | - |
| 1777768417 | 21.11° C | 66% | 1011.8 hPa | 0 mm | - | 139 W/m² | - |
| 1777768113 | 21.11° C | 67% | 1011.8 hPa | 0 mm | - | 143 W/m² | - |
| 1777767811 | 21.67° C | 66% | 1012 hPa | 0 mm | - | 154 W/m² | - |
| 1777767507 | 22.22° C | 64% | 1011.9 hPa | 0 mm | - | 158 W/m² | - |
| 1777767203 | 21.67° C | 63% | 1011.7 hPa | 0 mm | - | 182 W/m² | - |
| 1777766901 | 22.22° C | 62% | 1011.7 hPa | 0 mm | - | 202 W/m² | - |
| 1777766598 | 22.22° C | 62% | 1011.8 hPa | 0 mm | - | 210 W/m² | - |
| 1777766295 | 22.22° C | 62% | 1011.9 hPa | 0 mm | - | 215 W/m² | - |
| 1777765992 | 22.22° C | 62% | 1011.7 hPa | 0 mm | - | 250 W/m² | - |
* Rain latest hour (hover to see other rain measurements)
** Current wind speed in m/s (hover to see current wind gust speed)